Overview Statistics Trail Chart Weather Telemetry Raw packets
 

This is the latest recevied weather packets stored in our database for station/object K8RRT. If no packets are shown the sender has not sent any weather packets the latest 10 day(s).

<< 1 2 3 4 5 >>
Time Temp. Humidity Pressure Rain* Wind** Luminosity Snow
1788618430 23.33° C 95% 1010.8 hPa 0 mm - 169 W/m² -
1788618125 23.33° C 96% 1010.7 hPa 0 mm - 126 W/m² -
1788617820 23.33° C 96% 1010.3 hPa 0 mm - 95 W/m² -
1788617516 23.33° C 96% 1010.6 hPa 0 mm - 120 W/m² -
1788617211 23.33° C 96% 1010.7 hPa 0 mm - 161 W/m² -
1788616905 23.33° C 96% 1011.1 hPa 0 mm - 88 W/m² -
1788616600 23.33° C 95% 1011.2 hPa 0 mm - 97 W/m² -
1788616296 23.33° C 95% 1011.3 hPa 0 mm - 127 W/m² -
1788615990 23.89° C 96% 1011.2 hPa 0 mm - 224 W/m² -
1788615689 22.78° C 97% 1011.5 hPa 0 mm - 225 W/m² -
1788615385 23.33° C 98% 1011.7 hPa 0 mm - 152 W/m² -
1788615085 23.33° C 99% 1011.3 hPa 0 mm - 231 W/m² -
1788614784 22.78° C 99% 1011.7 hPa 0 mm - 124 W/m² -
1788614478 22.78° C 99% 1011.7 hPa 0 mm - 122 W/m² -
1788614169 22.78° C 99% 1011.6 hPa 0 mm - 98 W/m² -
1788613864 22.78° C 98% 1011.5 hPa 0 mm - 74 W/m² -
1788613564 22.78° C 98% 1011.5 hPa 11.94 mm - 52 W/m² -
1788613258 22.78° C 97% 1011.7 hPa 11.94 mm - 25 W/m² -
1788612958 23.33° C 96% 1012.1 hPa 0 mm - 11 W/m² -
1788612653 23.33° C 96% 1011.7 hPa 0 mm - 19 W/m² -
1788612350 23.33° C 96% 1011.4 hPa 0 mm - 24 W/m² -
1788612046 23.33° C 96% 1011.3 hPa 0 mm - 35 W/m² -
1788611741 23.33° C 97% 1011.3 hPa 0 mm - 24 W/m² -
1788611438 23.33° C 99% 1011.4 hPa 0 mm - 14 W/m² -
1788611137 22.78° C 99% 1011.4 hPa 0 mm - 15 W/m² -

* Rain latest hour (hover to see other rain measurements)
** Current wind speed in m/s (hover to see current wind gust speed)